Regional Weather Roundup
Issued by NWS

Home | Current Version | Previous Version | Text Only | Print | Product List | Glossary On
Versions: 1 2 3 4 5 6 7 8 9 10 11 12 13 14 15 16 17 18 19 20 21 22 23 24 25 26 27 28 29 30 31 32 33 34 35 36 37 38 39 40 41 42 43 44 45 46 47 48 49 50
000
ASUS46 KLOX 250713
RWRCA

SOUTHERN CALIFORNIA WEATHER ROUNDUP
NATIONAL WEATHER SERVICE OXNARD CALIFORNIA
1200 AM PDT WED MAY 25 2016

NOTE: "FAIR" INDICATES FEW OR NO CLOUDS BELOW 12,000 FEET WITH NO
SIGNIFICANT WEATHER AND/OR OBSTRUCTIONS TO VISIBILITY.

  -  STATIONS PRECEEDED BY AN ASTERISK (*) ARE NOT NWS OR FAA
     STATIONS AND ARE NOT SUBJECT TO NWS AND FAA QUALITY CONTROL.

CAZ041-042-087-250800-
LA AND ORANGE COUNTY COASTAL AREAS


CITY           SKY/WX    TMP DP  RH WIND       PRES   REMARKS
L.A. DOWNTOWN  MOCLDY    60  51  72 CALM      30.05S
L.A. AIRPORT   PTCLDY    59  53  80 W10       30.05F
LONG BEACH     CLOUDY    61  51  70 SW6       30.05F

CITY           SKY/WX    TMP DP  RH WIND       PRES   REMARKS
AVALON           N/A     59 N/A N/A E1          N/A
FULLERTON      CLEAR     61  51  70 W5        30.05S
*GETTY CENTER    N/A    N/A N/A N/A NE2         N/A
HAWTHORNE      CLEAR     61  51  70 W5        30.06S
*LOS ALAMITOS  FAIR      59  50  72 W5        30.05S
*REDONDO BEACH   N/A     59  53  78 CALM      30.05S
SANTA ANA      PTCLDY    61  52  72 W3        30.06S
STA MONICA APT CLEAR     59  53  80 SW3       30.05F
*STA MON PIER    N/A     58  54  86 NW3       29.99S
*UCLA            N/A     55  50  82 CALM      30.03S

$$

CAZ547-548-048-250800-
LA COUNTY VALLEYS AND INLAND EMPIRE


CITY           SKY/WX    TMP DP  RH WIND       PRES   REMARKS
BURBANK        PTCLDY    57  50  77 SE3       30.04F
VAN NUYS       CLEAR     57  49  74 CALM      30.04F

CITY           SKY/WX    TMP DP  RH WIND       PRES   REMARKS
CORONA AIRPORT CLOUDY    58  51  78 NW7       30.06R
*CHATSWORTH      N/A     55  49  79 NW6       30.06S
CHINO          MOCLDY    59  51  75 W8        30.07S
*CLAREMONT       N/A     55  51  85 SW5         N/A
MARCH AFB      CLOUDY    56  50  80 NW6       30.05S
*NORTHRIDGE      N/A     55  48  76 NE1         N/A
ONTARIO        MOCLDY    58  49  72 W9        30.05S
*PASADENA        N/A     57  52  82 NE3         N/A
RIVERSIDE      CLOUDY    58  50  75 W6        30.05S
SAN BERNARDINO NOT AVBL
*SAN GABRIEL     N/A     59  52  78 W1        30.12S
*WHITEMAN AP   NOT AVBL
*WHITTIER HILL   N/A     55  51  87 W3G69       N/A
*WOODLAND HILL   N/A     55  48  76 SW5         N/A

$$

CAZ054-055-250800-
LA AND SAN BERNARDINO COUNTY MOUNTAINS


CITY           SKY/WX    TMP DP  RH WIND       PRES   REMARKS
*ACTON           N/A     51  46  82 SW5         N/A
*BIG BEAR AIRP SUNNY     32  28  86 CALM      30.08S
*BIG PINES       N/A     35  24  63 NW2         N/A
*CHILAO          N/A     39  39  99 E3          N/A
SANDBERG       CLOUDY    48  40  73 S8        30.07S
*WARM SPRINGS    N/A     44  31  59 CALM        N/A

$$

CAZ028-029-059-060-099-250800-
ANTELOPE VALLEY AND SURROUNDING AREAS


CITY           SKY/WX    TMP DP  RH WIND       PRES   REMARKS
LANCASTER      CLEAR     53  43  68 SW17      30.02R
PALMDALE       CLEAR     53  42  66 SW15      30.01S
*POPPY PARK      N/A     50  41  70 SW14G31     N/A

CITY           SKY/WX    TMP DP  RH WIND       PRES   REMARKS
29 PALMS       CLEAR     63  31  30 W7        30.01R
BARSTOW/DAGGET CLEAR     62  37  39 SW17      29.94F
BISHOP         CLOUDY    54  39  57 E5        30.01S
CHINA LAKE     CLEAR     60  39  45 S15G24    29.90R
EDWARDS AFB    CLEAR     53  43  68 SW18      29.97S
MOJAVE         CLEAR     55  41  58 SW15G23   29.99S
NEEDLES        CLEAR     74  34  23 NE7       29.86S
VICTORVILLE    CLEAR     52  43  71 S6        30.01S

$$

CAZ039-040-250800-
VENTURA AND SANTA BARBARA COUNTY COAST


CITY           SKY/WX    TMP DP  RH WIND       PRES   REMARKS
CAMARILLO      MOCLDY    59  52  77 W3        30.05S
NWS OXNARD       N/A     58  52  81 CALM      30.04F
OXNARD AIRPORT MOCLDY    58  54  86 W5        30.05S
*POINT MUGU    CLOUDY    58  53  84 CALM      30.06F
SBA APT/GOLETA MOCLDY    55  51  86 N3        30.04S
*SANTA BARBARA   N/A     60  52  74 CALM      30.11F
*VENTURA         N/A     55  51  83 W1        30.03S

$$

CAZ044-045-250800-
VENTURA COUNTY VALLEYS


CITY           SKY/WX    TMP DP  RH WIND       PRES   REMARKS
*SIMI VALLEY     N/A     54  50  87 CALM      30.02F
*WESTLAKE VILL   N/A     53  49  84 CALM      30.04F
*OJAI            N/A     52  48  86 CALM      29.99F
*FILLMORE        N/A     56  49  77 CALM      29.95F

$$

CAZ053-250800-
VENTURA COUNTY MOUNTAINS


CITY           SKY/WX    TMP DP  RH WIND       PRES   REMARKS
*LOCKWOOD VLY    N/A     43  39  87 MISG        N/A
*ROSE VALLEY     N/A     48  46  93 MISG        N/A

$$

CAZ034-035-036-250800-
CENTRAL COAST AND SANTA YNEZ VALLEY


CITY           SKY/WX    TMP DP  RH WIND       PRES   REMARKS
SAN LUIS OBISP CLOUDY    58  50  75 SW5       30.07S
SANTA MARIA    PTCLDY    51  49  92 CALM      30.08R

CITY           SKY/WX    TMP DP  RH WIND       PRES   REMARKS
*CAL POLY SLO    N/A     55  52  88 W3G10       N/A
*LOMPOC        PTCLDY    52  49  89 W3        30.08R
*PISMO BEACH     N/A     56  51  82 CALM      30.08S
*SANTA YNEZ    CLOUDY    55  48  76 N6        30.07S

$$

CAZ037-038-051-250800-
SAN LUIS OBISPO COUNTY INTERIOR AND CUYAMA VALLEY


CITY           SKY/WX    TMP DP  RH WIND       PRES   REMARKS
*CUYAMA          N/A     52  45  76 W5        29.99R
PASO ROBLES    CLOUDY    54  48  80 SW7       30.06R

$$

CAZ032-033-061-250800-
SOUTHERN DESERTS


CITY           SKY/WX    TMP DP  RH WIND       PRES   REMARKS
BLYTHE         CLEAR     67  46  47 SE12      29.88F
IMPERIAL       CLEAR     65  41  41 W15       29.89S
PALM SPRINGS     N/A     69  42  37 MISG      29.90F
THERMAL        CLEAR     68  46  45 NW16G30   29.87S

$$

ELSEWHERE ACROSS THE WESTERN UNITED STATES AND MEXICO


CITY           SKY/WX    TMP DP  RH WIND       PRES   REMARKS
DENVER, CO     PTCLDY    52 N/A N/A W5        29.90R
GRAND CANYON,  PTCLDY    42  16  34 SW7       30.10F
HONOLULU, HI   PTCLDY    77  66  69 E14       30.05R
KAHULUI, MAUI  MOCLDY    73  70  88 NE15      30.04S
LAKE TAHOE, CA PTCLDY    37  35  92 CALM      30.08S
LAS VEGAS, NV  PTCLDY    69  32  25 SW7       29.87R
MAMMOTH LAKES, CLOUDY    40  34  77 W8        30.09S WCI  35
MEXICO CITY, M MOCLDY    63  55  77 NE7       30.43F
PHOENIX, AZ    CLEAR     73  27  18 SW6       29.90S
PORTLAND, OR   PTCLDY    57  47  69 NW10      30.05R
RENO, NV       MOCLDY    54  38  54 NW7       30.05R
SALT LAKE CITY PTCLDY    55  39  54 S8        29.94S
SAN DIEGO, CA  MOCLDY    63  52  67 NW6       30.07F
SAN FRANCISCO, CLOUDY    58  46  64 W10       30.07R
SAN JOSE, CA   MOCLDY    58  48  69 W7        30.07R
SEATTLE, WA    CLOUDY    56  51  84 CALM      30.04S
TIJUANA, MEX   MOCLDY    59  50  72 W7        30.08S

$$

STATION/POSITION TIME  TEMP    WIND        PRES    VSBY  WAVE
                       AIR SEA DIR/SP/G                  HT/PER
                 (UTC) (F)     (DEG/KT/KT) (MB)    (MI)  (FT/S)
POINT ARGUELLO B NOT AVBL
WEST SANTA BARBA 0650   57 57  320/  8/  8 1017.5S         3/ 7
POINT CONCEPTION NOT AVBL
EAST SANTA BARBA 0600   58 59  260/ 14/ 17 1017.6S
SANTA MONICA BAY 0650   60 63  300/  6/  8 1017.8F         3/ 5



USA.gov is the U.S. government's official web portal to all federal, state and local government web resources and services.